NOZ173 ENZV-ENBR

Flight info

Callsign NOZ173
Flight time 0h 19m
Altitude 12000
Route ALUVA
Aircraft B38M/M-SDE1FGHILORVWXY/HB1

Departure

Time 2026-04-24 11:11
Airport Stavanger Airport, Sola (ENZV)

Arrival

Time 2026-04-24 11:31
Airport Bergen Airport, Flesland (ENBR)
Time Latitude Longitude Altitude Speed Heading
2026-04-24 11:03 58.88126 5.63027 28 ft 0 kts 315°
2026-04-24 11:03 58.88122 5.63036 27 ft 3 kts 315°
2026-04-24 11:04 58.88109 5.63061 27 ft 2 kts 315°
2026-04-24 11:04 58.88097 5.63083 28 ft 2 kts 315°
2026-04-24 11:04 58.88088 5.63100 28 ft 0 kts 315°
2026-04-24 11:08 58.88093 5.63062 27 ft 11 kts 266°
2026-04-24 11:08 58.88033 5.63049 29 ft 11 kts 131°
2026-04-24 11:09 58.87982 5.63220 31 ft 19 kts 119°
2026-04-24 11:09 58.87903 5.63343 34 ft 12 kts 194°
2026-04-24 11:09 58.87770 5.63296 34 ft 26 kts 181°
2026-04-24 11:09 58.87544 5.63300 33 ft 39 kts 179°
2026-04-24 11:10 58.87236 5.63312 34 ft 50 kts 180°
2026-04-24 11:10 58.87026 5.63339 35 ft 21 kts 148°
2026-04-24 11:10 58.86955 5.63588 37 ft 21 kts 97°
2026-04-24 11:10 58.86996 5.63801 38 ft 11 kts 15°
2026-04-24 11:11 58.87125 5.63801 37 ft 47 kts 359°
2026-04-24 11:11 58.87733 5.63783 36 ft 125 kts 360°
2026-04-24 11:11 58.88800 5.63770 268 ft 172 kts 356°
2026-04-24 11:11 58.90023 5.63778 1366 ft 173 kts 356°
2026-04-24 11:12 58.91185 5.63775 2640 ft 168 kts 359°
2026-04-24 11:12 58.92473 5.63818 2974 ft 203 kts 359°
2026-04-24 11:12 58.93929 5.63764 3796 ft 204 kts 356°
2026-04-24 11:12 58.95305 5.63483 4856 ft 206 kts 350°
2026-04-24 11:13 58.96807 5.62991 5416 ft 228 kts 349°
2026-04-24 11:13 58.98412 5.62476 6256 ft 241 kts 349°
2026-04-24 11:13 59.00108 5.61946 7130 ft 250 kts 349°
2026-04-24 11:13 59.01831 5.61419 8157 ft 252 kts 348°
2026-04-24 11:14 59.03585 5.60889 9131 ft 257 kts 348°
2026-04-24 11:14 59.05367 5.60355 10115 ft 261 kts 348°
2026-04-24 11:14 59.07176 5.59815 10979 ft 265 kts 348°
2026-04-24 11:14 59.09009 5.59269 11849 ft 269 kts 348°
2026-04-24 11:15 59.10931 5.58695 12206 ft 292 kts 348°
2026-04-24 11:15 59.13003 5.58077 12207 ft 310 kts 348°
2026-04-24 11:15 59.15194 5.57424 12210 ft 327 kts 348°
2026-04-24 11:15 59.17499 5.56734 12206 ft 344 kts 348°
2026-04-24 11:16 59.19882 5.56021 12215 ft 357 kts 348°
2026-04-24 11:16 59.22358 5.55278 12236 ft 363 kts 348°
2026-04-24 11:16 59.24861 5.54525 12249 ft 365 kts 348°
2026-04-24 11:16 59.27376 5.53768 12254 ft 366 kts 348°
2026-04-24 11:17 59.29889 5.53011 12261 ft 366 kts 348°
2026-04-24 11:17 59.32403 5.52252 12261 ft 366 kts 348°
2026-04-24 11:17 59.34919 5.51492 12262 ft 366 kts 348°
2026-04-24 11:17 59.37432 5.50731 12267 ft 366 kts 348°
2026-04-24 11:18 59.39947 5.49968 12261 ft 366 kts 348°
2026-04-24 11:18 59.42462 5.49205 12259 ft 365 kts 348°
2026-04-24 11:18 59.44972 5.48442 12255 ft 365 kts 348°
2026-04-24 11:18 59.47484 5.47676 12259 ft 365 kts 348°
2026-04-24 11:19 59.49995 5.46910 12275 ft 365 kts 348°
2026-04-24 11:19 59.52509 5.46143 12259 ft 365 kts 348°
2026-04-24 11:19 59.55023 5.45374 12260 ft 366 kts 348°
2026-04-24 11:19 59.57512 5.44611 12150 ft 357 kts 348°
2026-04-24 11:20 59.59952 5.43862 11657 ft 353 kts 348°
2026-04-24 11:20 59.62370 5.43119 11198 ft 350 kts 348°
2026-04-24 11:20 59.64763 5.42383 10743 ft 346 kts 348°
2026-04-24 11:20 59.67133 5.41653 10286 ft 343 kts 348°
2026-04-24 11:21 59.69478 5.40929 9852 ft 339 kts 348°
2026-04-24 11:21 59.71789 5.40215 9462 ft 333 kts 348°
2026-04-24 11:21 59.74062 5.39511 9071 ft 328 kts 349°
2026-04-24 11:21 59.76272 5.38827 8695 ft 324 kts 349°
2026-04-24 11:22 59.78488 5.38140 8338 ft 320 kts 349°
2026-04-24 11:22 59.80675 5.37460 7966 ft 317 kts 349°
2026-04-24 11:22 59.82844 5.36785 7581 ft 314 kts 349°
2026-04-24 11:22 59.84988 5.36116 7210 ft 311 kts 349°
2026-04-24 11:23 59.87112 5.35454 6852 ft 308 kts 349°
2026-04-24 11:23 59.89220 5.34795 6466 ft 305 kts 349°
2026-04-24 11:23 59.91308 5.34142 6086 ft 303 kts 350°
2026-04-24 11:23 59.93382 5.33493 5703 ft 300 kts 350°
2026-04-24 11:24 59.95438 5.32847 5318 ft 299 kts 350°
2026-04-24 11:24 59.97487 5.32204 4928 ft 297 kts 350°
2026-04-24 11:24 59.99520 5.31566 4522 ft 295 kts 350°
2026-04-24 11:24 60.01508 5.30940 4318 ft 280 kts 350°
2026-04-24 11:25 60.03350 5.30358 4226 ft 258 kts 350°
2026-04-24 11:25 60.05062 5.29818 4109 ft 239 kts 350°
2026-04-24 11:25 60.06647 5.29318 3983 ft 223 kts 350°
2026-04-24 11:25 60.08127 5.28852 3834 ft 208 kts 350°
2026-04-24 11:26 60.09497 5.28418 3752 ft 192 kts 350°
2026-04-24 11:26 60.10784 5.27997 3607 ft 184 kts 350°
2026-04-24 11:26 60.12037 5.27584 3346 ft 182 kts 350°
2026-04-24 11:26 60.13281 5.27171 3071 ft 180 kts 350°
2026-04-24 11:27 60.14485 5.26771 2935 ft 170 kts 350°
2026-04-24 11:27 60.15627 5.26392 2722 ft 163 kts 349°
2026-04-24 11:27 60.16746 5.26020 2531 ft 165 kts 349°
2026-04-24 11:27 60.17901 5.25635 2311 ft 169 kts 349°
2026-04-24 11:28 60.19067 5.25248 2088 ft 170 kts 349°
2026-04-24 11:28 60.20185 5.24875 1876 ft 157 kts 349°
2026-04-24 11:28 60.21189 5.24539 1656 ft 140 kts 349°
2026-04-24 11:28 60.22113 5.24231 1506 ft 130 kts 348°
2026-04-24 11:29 60.23001 5.23935 1310 ft 129 kts 348°
2026-04-24 11:29 60.23882 5.23640 1113 ft 129 kts 348°
2026-04-24 11:29 60.24784 5.23340 913 ft 134 kts 348°
2026-04-24 11:29 60.25711 5.23029 700 ft 136 kts 348°
2026-04-24 11:30 60.26675 5.22701 517 ft 142 kts 347°
2026-04-24 11:30 60.27663 5.22381 332 ft 142 kts 348°
2026-04-24 11:30 60.28599 5.22071 198 ft 131 kts 347°
2026-04-24 11:30 60.29389 5.21786 177 ft 91 kts 351°
2026-04-24 11:31 60.29814 5.21658 178 ft 51 kts 351°
2026-04-24 11:31 60.30001 5.21619 177 ft 16 kts 20°
2026-04-24 11:31 60.30046 5.21838 172 ft 19 kts 102°
2026-04-24 11:31 60.29926 5.21952 171 ft 21 kts 171°
2026-04-24 11:32 60.29771 5.21999 171 ft 24 kts 171°
2026-04-24 11:32 60.29586 5.22053 174 ft 30 kts 172°
2026-04-24 11:32 60.29364 5.22120 179 ft 36 kts 167°
2026-04-24 11:32 60.29102 5.22231 176 ft 39 kts 171°
2026-04-24 11:33 60.28841 5.22314 176 ft 36 kts 171°
2026-04-24 11:33 60.28674 5.22517 176 ft 29 kts 103°
2026-04-24 11:33 60.28682 5.22777 176 ft 16 kts 77°
2026-04-24 11:33 60.28696 5.22910 176 ft 0 kts 79°